Wind_Speed
29 27 27 26 25 25 26 25 25 24 24 24 25 25 26 26 25 25 21 16 17 21 24 24 23 22 23 23 24 24 24 24 24 23 21 20 20 21 22 21 22 22 21 20 19 18 18 18 18 17 14 12 12 12 11 9 7 9 13 15 18 20 21 17 12 10 12 17 18 20 25 27 25 24 23 21 21 20 19 18 15 13 12 10 10
24 25 25 24 24 25 26 25 24 24 24 23 24 24 25 26 25 25 25 21 17 18 21 23 24 24 26 27 27 27 27 26 25 25 24 22 22 22 23 23 24 24 24 24 23 22 21 22 21 21 18 15 13 13 13 12 10 10 11 14 17 20 21 18 15 14 14 16 20 23 26 27 25 24 23 22 22 22 21 19 17 15 12 11 11
19 24 24 23 24 24 25 25 24 24 24 23 23 23 24 25 25 24 24 24 22 19 19 22 25 28 29 30 30 30 30 29 28 27 26 25 24 24 25 25 26 26 26 26 25 24 24 25 25 24 21 17 15 14 13 13 13 11 11 13 17 19 21 20 17 16 18 19 22 26 27 26 25 24 22 21 22 22 22 20 18 16 13 11 11
21 25 26 25 25 26 25 24 24 24 24 24 23 24 24 25 25 24 24 24 24 23 22 22 25 28 31 31 32 32 32 32 31 30 29 28 27 27 27 28 28 28 27 26 25 25 25 24 24 25 23 20 18 17 16 15 14 13 11 13 16 18 20 21 19 19 22 20 20 25 27 25 24 24 23 21 21 22 22 20 18 16 14 13 12
25 26 27 26 26 27 26 25 24 25 25 24 24 23 23 24 25 25 25 25 25 25 24 24 24 26 28 30 31 32 33 34 33 33 31 30 29 29 29 31 31 30 30 29 27 27 27 25 23 23 23 22 20 18 18 16 15 14 13 13 16 18 19 20 20 21 23 23 21 22 24 24 23 23 25 24 23 23 22 20 19 17 15 15 13
26 24 25 27 28 28 27 26 25 25 25 25 24 23 23 23 23 24 25 26 26 26 25 25 25 25 27 29 31 31 32 32 32 32 32 31 30 30 30 32 34 33 32 31 30 29 29 26 24 24 24 23 22 20 19 18 16 16 15 15 17 18 19 20 21 21 24 25 24 23 23 24 23 23 25 25 26 27 24 21 20 18 17 17 16
23 22 23 27 30 30 28 26 25 24 24 24 24 24 23 23 23 25 26 26 27 27 27 26 26 26 24 25 29 32 32 30 29 31 32 32 31 31 31 33 35 35 34 33 32 31 30 28 26 26 26 24 23 22 21 20 18 17 17 16 17 19 20 20 20 22 23 24 24 24 24 25 25 25 25 25 25 26 26 25 22 20 20 20 20
22 24 26 28 29 29 27 25 24 22 22 24 25 25 24 24 24 25 26 26 25 25 25 23 25 26 23 19 21 26 29 31 31 32 33 32 32 32 32 33 34 35 35 34 32 31 31 30 28 28 27 25 24 23 22 22 20 19 18 17 18 20 21 21 21 23 24 24 24 24 24 24 24 23 24 25 24 24 27 28 26 25 24 22 21
26 31 31 29 25 22 22 22 23 22 22 24 27 27 26 25 24 24 25 26 26 26 26 23 23 25 25 23 21 20 22 26 30 34 35 35 34 33 33 34 34 35 36 34 32 31 31 31 30 28 27 26 25 23 23 24 23 21 20 19 20 21 22 23 23 24 25 24 23 24 24 24 24 24 25 28 29 28 28 27 25 26 25 21 21
33 34 30 25 20 17 17 18 20 21 22 23 25 26 26 26 25 24 25 26 28 29 29 26 25 26 27 29 28 25 23 22 24 30 35 35 33 32 33 34 34 34 35 34 32 31 31 32 31 30 29 27 26 25 24 25 25 24 23 22 22 23 24 25 25 25 26 25 24 24 23 22 26 29 30 32 31 29 29 27 24 25 24 19 17
30 27 23 20 18 16 15 16 18 19 20 19 20 21 23 25 25 24 24 24 25 27 27 27 26 26 27 29 29 29 28 25 23 25 28 28 27 27 29 32 32 32 33 33 33 32 32 32 31 31 31 29 28 27 26 25 25 25 24 24 23 24 25 26 27 27 27 25 24 25 25 24 29 33 32 32 31 30 31 30 28 27 25 21 17
21 20 18 17 16 15 15 15 17 19 19 19 18 19 20 22 23 22 21 21 21 23 24 25 25 25 26 28 28 28 29 29 27 26 26 26 26 25 25 27 29 31 32 33 34 33 32 32 32 32 32 31 30 29 28 27 26 25 26 26 25 25 26 27 27 28 29 28 26 26 28 29 30 33 33 33 33 32 31 31 32 32 29 26 23
17 16 15 15 15 15 15 15 16 18 18 16 17 19 20 21 22 21 20 20 20 21 21 21 23 24 25 27 28 28 28 28 29 28 27 28 28 28 27 26 27 30 32 34 34 34 33 32 31 32 32 32 32 31 30 28 27 26 26 26 27 27 28 29 29 28 30 31 30 31 34 33 32 35 38 37 36 33 31 30 32 33 32 31 28
14 14 14 13 13 13 13 14 15 15 14 12 13 16 18 19 21 21 20 19 19 20 19 19 20 22 22 22 23 24 23 24 26 27 27 27 29 29 29 27 26 27 30 32 33 34 35 34 33 33 33 33 33 33 32 30 29 27 27 27 29 30 30 30 30 30 31 33 34 36 38 37 37 39 41 40 39 38 37 35 35 35 34 31 27
15 15 14 13 12 13 13 13 13 13 13 13 14 15 16 17 19 18 18 18 17 16 16 18 20 20 19 18 18 19 19 19 20 21 23 24 26 27 27 27 27 27 29 30 30 31 33 35 35 35 33 33 34 35 34 32 31 30 29 30 31 32 32 33 33 32 32 34 36 38 38 39 41 41 40 42 43 43 42 40 38 36 31 25 22
16 16 16 15 15 14 14 14 14 14 14 16 18 18 17 18 18 17 17 18 17 16 17 19 21 21 19 18 18 19 19 19 18 19 19 20 21 23 23 21 19 19 20 22 25 28 31 33 34 35 35 34 35 35 35 34 33 33 33 33 33 34 35 35 35 34 34 35 36 37 38 40 40 38 38 41 44 42 37 32 30 30 27 22 21
17 17 17 17 15 13 13 14 14 14 14 16 18 18 18 18 18 18 18 19 18 18 17 17 17 16 16 17 17 19 20 20 20 20 20 20 20 20 19 15 12 13 15 16 19 22 26 29 30 31 33 34 34 34 34 35 34 32 31 32 34 35 36 37 37 36 36 35 36 37 37 37 37 37 39 41 42 40 35 31 31 33 30 23 20
17 16 15 14 13 11 11 11 12 12 12 12 12 11 10 10 11 13 14 15 15 13 12 12 12 13 14 15 15 17 19 19 19 19 20 21 22 22 20 17 17 19 23 25 25 24 24 25 26 28 31 33 35 36 36 36 35 32 32 34 34 34 36 38 38 37 37 36 36 37 37 36 35 36 38 40 41 41 40 37 36 36 31 25 22
16 15 14 12 11 9 8 8 7 7 7 6 5 4 3 3 4 5 6 7 7 6 7 8 9 10 11 12 13 15 17 18 17 17 18 19 20 21 20 18 18 22 27 30 30 27 25 24 25 28 30 31 33 36 38 38 36 36 37 35 33 34 38 40 39 39 39 39 39 39 39 39 36 32 31 36 41 43 43 41 39 38 34 29 28
13 12 11 11 9 8 6 5 4 3 3 2 1 1 1 1 1 0 1 2 3 4 5 6 7 7 8 10 11 13 14 15 14 14 15 16 16 17 16 16 17 20 23 24 24 25 25 26 26 27 28 28 30 32 36 38 38 39 37 33 31 34 39 40 41 41 40 40 40 40 39 39 39 34 30 34 41 43 43 42 42 43 40 34 34
10 10 10 10 9 7 6 4 3 2 2 2 2 2 1 1 1 1 2 3 4 4 5 5 6 7 8 10 11 12 12 13 12 12 13 14 14 15 16 16 17 18 20 21 22 23 26 27 28 28 28 29 30 31 33 37 40 39 35 33 35 38 38 39 40 40 40 40 39 37 35 35 37 36 34 35 40 43 44 44 45 46 44 41 41
12 12 11 10 8 6 4 3 2 2 2 2 2 3 3 3 3 3 3 3 4 5 6 7 8 9 9 10 11 11 11 11 12 12 12 13 13 14 16 18 19 20 21 23 24 25 26 27 27 27 27 29 30 30 30 34 38 38 37 40 43 42 39 39 39 38 38 39 37 35 33 32 33 35 35 36 39 42 43 43 42 42 42 43 44
14 13 11 9 6 4 2 2 2 3 3 3 3 3 4 4 4 3 2 3 4 5 6 7 8 9 10 10 10 9 8 9 10 11 11 12 13 14 16 18 19 19 21 23 24 25 24 24 24 24 25 27 27 28 28 30 34 37 38 41 46 44 40 38 36 35 36 36 34 32 32 31 32 34 34 35 38 39 38 37 38 39 38 37 39
13 11 8 6 4 2 2 1 1 2 2 3 4 4 3 4 4 2 2 3 4 5 5 6 6 7 9 10 10 8 7 7 8 9 10 11 12 13 14 16 16 17 19 22 23 24 23 23 23 23 24 26 26 27 28 28 31 35 35 36 40 42 39 37 36 34 33 33 33 32 32 32 32 33 33 34 36 36 35 34 34 34 32 30 30
10 8 6 4 3 3 3 3 4 4 4 5 7 7 7 6 5 4 2 2 4 4 4 4 5 5 5 6 6 5 6 6 6 8 8 8 10 11 12 13 14 14 16 18 20 22 22 22 23 22 23 24 25 26 27 27 28 31 32 32 33 36 38 38 36 34 33 33 33 31 30 29 29 29 30 31 32 32 31 30 29 26 24 26 26
6 6 5 3 4 5 5 5 7 7 7 8 8 9 9 8 6 4 2 1 4 5 4 3 3 5 6 6 6 3 3 5 6 8 8 7 8 10 12 13 14 14 15 16 16 18 18 18 19 19 19 20 21 22 23 24 26 27 29 29 29 33 36 36 35 35 35 35 34 31 28 27 26 27 29 29 30 30 30 30 29 27 27 28 24
4 5 4 2 3 5 5 5 6 6 5 4 4 4 4 4 4 3 1 3 4 5 4 2 1 4 5 5 5 5 3 3 5 7 7 7 8 9 10 12 13 14 15 15 14 14 14 14 13 12 12 12 13 14 15 18 20 23 25 26 26 28 30 30 30 29 28 27 28 29 29 29 29 29 30 31 31 30 31 31 30 29 27 26 23
1 3 3 3 3 4 5 6 6 4 2 3 4 4 3 3 3 2 1 4 5 5 4 2 1 2 3 3 4 4 4 3 5 7 8 8 8 9 10 11 12 12 12 11 10 9 9 8 7 6 6 6 6 7 8 9 12 15 17 17 16 17 20 21 21 18 15 15 18 20 24 29 31 32 32 32 31 31 31 32 31 28 27 25 22
2 3 4 6 7 7 7 7 6 4 3 5 5 5 4 3 1 0 2 4 6 6 5 4 2 2 3 5 6 6 7 7 7 7 9 8 7 8 9 9 10 9 8 6 5 4 3 3 2 2 1 1 2 1 0 2 4 6 6 5 6 10 13 15 16 15 16 20 21 19 18 20 25 28 30 31 30 29 30 30 29 28 27 25 23
5 7 10 12 10 5 4 5 5 2 2 4 3 3 4 3 2 0 2 4 6 7 7 7 6 5 5 6 7 8 9 10 8 8 8 7 5 5 6 5 5 4 3 1 1 1 0 1 2 3 4 5 6 6 6 5 5 4 4 5 8 11 13 16 19 20 23 25 25 23 22 22 24 26 28 29 28 27 26 25 26 26 26 25 24
4 6 9 10 8 5 3 2 2 2 2 3 3 3 3 3 2 1 2 4 5 6 7 7 7 6 5 5 6 7 10 10 9 8 6 4 2 2 2 2 1 1 1 1 0 0 1 3 4 5 6 6 7 7 7 8 9 9 10 10 12 15 19 22 24 26 26 27 26 25 26 26 25 25 26 27 27 25 23 22 23 24 24 25 25
10 10 9 7 4 3 3 3 4 5 6 6 6 6 5 5 5 4 4 5 5 5 5 5 5 4 3 3 4 7 9 9 7 5 3 2 2 2 3 4 4 3 2 0 1 2 3 4 5 5 6 6 6 7 9 11 11 11 12 13 15 17 20 23 25 27 27 27 26 25 24 24 24 23 23 24 25 24 23 23 24 24 24 24 25
16 14 14 12 11 9 8 7 6 8 8 9 9 9 8 8 7 6 5 4 4 4 4 4 3 2 2 2 4 6 7 7 4 1 2 4 5 5 5 5 4 3 2 2 3 5 5 5 5 5 5 6 8 9 11 12 11 11 12 13 14 15 17 20 22 23 24 24 24 24 24 24 23 21 20 21 22 23 23 23 24 24 24 24 24
15 13 12 13 13 13 12 10 8 8 9 9 9 8 9 9 8 8 8 7 6 6 6 4 3 3 2 4 5 5 5 5 3 3 6 7 8 8 7 6 5 4 3 3 4 5 6 5 5 5 5 6 8 10 11 11 11 12 12 14 14 16 17 18 19 20 21 21 22 22 22 22 22 21 21 21 21 22 22 22 23 23 23 24 24
13 12 13 15 15 16 16 15 12 11 10 9 9 8 8 8 8 8 9 9 8 8 7 6 4 4 4 5 6 6 5 5 5 8 10 10 10 10 9 7 5 4 4 3 3 4 4 5 5 6 6 6 8 10 11 11 12 13 14 15 16 17 17 17 17 18 19 20 20 20 21 21 21 22 23 23 22 22 22 23 23 23 24 24 24
13 14 16 17 17 17 18 17 15 14 13 11 10 9 9 8 7 7 8 8 8 8 9 7 5 5 6 7 7 6 6 8 10 11 13 13 13 11 10 8 5 4 5 5 4 3 4 4 4 6 7 7 8 10 11 11 12 13 14 16 17 18 17 17 16 17 18 18 19 19 20 20 20 21 22 22 23 23 23 24 24 24 24 24 24
12 13 16 18 17 17 16 15 14 14 14 13 12 11 10 10 8 7 7 7 8 9 10 9 8 8 8 8 8 8 9 11 13 14 15 15 14 12 11 9 6 5 6 7 7 6 5 5 5 6 8 9 9 10 12 13 13 13 14 16 18 19 18 17 17 17 17 18 18 19 20 20 20 21 22 23 23 23 23 24 24 23 23 23 24
9 10 13 16 17 16 15 13 13 14 15 15 14 12 11 9 6 5 5 7 9 11 11 10 11 11 11 9 8 8 10 13 15 16 17 17 15 14 12 10 7 5 5 8 10 9 8 7 6 7 8 9 10 11 13 14 14 14 15 17 18 19 18 16 16 17 18 18 19 19 19 20 20 21 22 23 23 23 23 23 23 22 22 22 23
7 7 9 13 16 16 15 13 13 15 16 16 14 12 10 8 7 6 6 8 10 12 12 12 13 13 12 10 8 8 11 14 17 18 19 18 17 15 14 12 10 7 5 6 9 13 12 9 8 7 7 8 9 11 14 15 16 16 16 17 18 19 18 18 17 18 18 18 19 19 19 19 20 20 20 21 23 24 23 22 23 23 23 23 23
8 7 8 9 12 14 14 13 13 14 15 14 14 12 11 10 9 9 8 8 10 12 12 13 14 14 12 11 10 8 10 15 19 20 20 20 19 18 16 15 13 11 9 7 8 13 15 13 11 10 9 9 9 11 14 16 16 16 17 18 19 20 20 20 19 18 19 19 19 19 19 20 20 20 20 21 22 23 23 22 22 24 25 24 23
8 7 7 7 8 9 10 10 11 12 13 13 13 13 13 12 11 10 9 9 10 11 13 14 15 15 13 12 11 10 10 14 17 20 22 21 20 19 19 17 15 13 13 12 11 13 17 18 15 13 12 11 10 12 14 16 17 17 18 19 20 21 21 21 20 19 19 19 19 20 20 21 21 21 22 22 21 21 22 22 23 24 25 25 23
6 6 6 7 8 8 8 7 7 8 9 12 14 15 15 15 13 11 11 10 10 12 13 15 16 16 15 14 13 12 12 13 15 19 22 23 22 21 20 19 16 15 15 16 16 16 18 21 20 17 16 15 14 14 15 17 19 19 18 19 21 22 23 23 22 20 19 20 21 22 21 21 22 22 22 22 22 21 22 23 24 24 25 25 24
5 5 5 7 8 8 8 7 7 7 8 11 13 15 16 16 15 13 13 12 12 12 13 14 15 16 17 16 15 14 14 14 14 17 20 23 23 23 21 20 18 16 16 17 18 18 18 22 24 21 18 17 15 15 16 17 19 20 20 20 22 23 23 24 24 23 22 22 22 23 23 23 23 24 23 23 23 23 22 23 24 24 25 26 26
4 4 5 6 7 6 6 5 6 7 9 10 11 13 14 15 16 15 14 14 13 13 13 13 14 15 16 17 17 17 17 16 15 15 18 20 22 23 22 20 18 17 16 16 16 16 16 22 25 24 21 19 17 16 16 17 18 19 20 21 23 24 24 24 25 25 25 24 24 24 24 24 24 25 25 25 25 24 24 24 24 25 25 25 26
2 2 2 3 4 4 4 3 3 5 7 9 9 9 10 11 12 13 14 14 15 14 14 14 14 15 16 17 18 19 19 18 16 16 17 19 21 22 21 20 18 17 16 16 16 16 14 20 26 26 23 21 20 18 18 18 18 19 19 21 22 24 24 23 23 24 24 25 26 26 25 25 25 26 26 26 26 26 25 25 25 26 26 26 26
3 2 2 1 1 0 0 1 2 4 5 5 5 4 3 3 4 6 7 9 11 13 14 15 15 16 17 18 19 20 20 19 17 16 16 17 19 20 20 19 18 17 17 17 17 16 15 17 25 28 25 22 21 20 20 20 20 20 20 21 21 21 20 20 21 22 23 24 25 26 27 27 27 27 27 27 27 27 26 26 26 27 27 27 27
5 5 5 5 5 4 4 4 4 4 5 4 3 3 4 4 5 6 6 5 5 6 8 10 13 16 17 18 18 19 19 19 18 17 16 17 17 18 19 19 19 19 17 16 16 16 15 15 20 26 27 25 23 22 22 22 22 22 22 22 22 21 20 19 20 21 22 22 23 25 27 28 28 28 27 27 28 28 28 28 28 28 28 28 29
8 8 9 9 9 8 8 7 5 5 6 5 5 6 7 7 7 8 8 8 8 7 6 4 6 10 13 15 15 16 16 17 17 16 16 17 17 17 18 19 20 19 17 15 15 16 17 17 18 23 27 28 26 24 24 24 24 24 23 23 23 22 22 21 22 22 22 22 23 24 26 27 28 29 28 28 28 29 29 29 29 29 29 29 30
14 15 15 15 14 13 12 11 10 10 9 9 8 8 9 9 9 8 8 7 7 7 7 8 6 4 5 7 9 10 12 13 14 14 15 15 16 17 17 18 19 20 20 18 18 19 19 19 19 20 25 29 30 29 27 26 26 25 25 24 24 24 23 23 23 23 22 23 24 25 26 27 28 29 29 29 29 30 30 30 30 30 29 29 30
20 20 20 19 18 17 15 14 14 14 15 14 13 13 13 12 12 12 12 11 10 9 8 8 9 9 8 7 5 5 6 7 8 9 10 11 12 14 15 16 17 18 19 19 17 17 17 17 17 19 22 26 30 31 31 30 28 27 26 25 25 24 24 24 24 24 24 24 25 26 27 27 28 29 30 30 30 31 32 32 31 31 30 29 30
22 22 22 21 21 20 19 18 19 19 19 19 18 17 17 16 17 17 18 17 16 14 10 9 10 10 10 10 9 7 6 5 5 6 6 6 6 7 8 9 10 12 15 15 14 13 14 14 14 16 19 23 28 31 33 32 30 28 27 26 25 25 25 25 25 25 25 26 27 28 28 29 29 30 31 31 32 33 33 33 33 33 32 31 30
Wind_Direction
197 201 206 209 211 216 220 223 226 228 228 228 228 229 230 231 231 229 228 225 221 220 219 216 219 225 230 235 237 239 241 240 237 236 236 239 240 240 241 241 243 246 248 250 251 256 260 261 264 263 263 265 262 258 252 244 237 226 223 225 223 221 217 205 173 150 177 194 190 182 181 182 184 187 182 172 175 184 183 177 172 168 167 165 163
195 201 205 206 209 214 218 221 225 228 229 230 230 229 229 228 229 228 229 229 226 224 224 223 226 232 236 238 238 239 240 238 236 235 237 239 241 242 242 242 244 245 247 249 251 254 256 257 260 259 256 256 255 255 249 242 243 239 229 227 224 220 215 204 180 156 160 181 184 180 183 187 186 186 185 177 177 184 184 178 174 170 172 172 163
204 209 210 208 210 214 217 220 223 226 227 228 228 228 227 226 227 229 230 232 232 231 234 235 236 237 239 240 239 238 237 237 236 236 238 241 242 243 243 242 242 243 244 247 250 251 253 256 257 253 250 251 250 249 247 243 243 245 239 229 224 219 213 206 194 171 161 172 180 177 178 187 189 187 187 183 181 184 183 178 173 170 171 172 165
207 213 212 212 214 214 217 219 221 223 224 224 225 226 227 225 226 228 230 233 236 237 241 244 243 240 238 239 239 238 235 234 235 236 239 241 243 244 246 244 242 242 243 245 246 248 250 254 255 248 244 248 248 245 243 243 242 244 244 234 226 222 216 212 208 189 172 168 176 179 179 185 188 186 185 183 181 184 183 179 174 171 169 171 169
207 209 208 213 217 217 215 214 216 220 222 223 224 224 225 224 224 227 230 233 237 240 243 246 247 244 240 238 237 237 236 234 235 237 239 241 243 245 247 245 243 242 243 244 244 245 247 251 251 245 242 245 245 242 240 242 242 242 240 232 227 226 219 213 209 199 184 172 172 182 186 187 186 185 185 182 176 177 181 180 177 174 172 171 168
213 214 211 214 218 218 216 213 214 218 221 223 224 224 224 222 220 222 225 230 233 235 238 243 248 250 248 243 238 236 235 234 235 236 237 239 241 244 245 245 243 242 243 244 244 243 245 249 249 244 243 245 244 241 240 240 241 240 237 231 224 221 215 208 205 200 188 177 175 181 186 188 184 181 184 185 179 175 175 174 175 178 178 172 166
219 227 224 217 215 215 215 214 214 217 220 222 223 225 226 225 223 222 224 228 230 231 234 242 248 249 250 247 240 236 234 232 232 231 232 237 241 243 244 243 243 243 243 244 244 244 244 246 248 246 245 246 246 244 241 239 239 239 237 230 222 216 211 207 203 197 185 176 177 182 185 188 187 183 184 185 182 178 174 169 169 175 179 176 170
213 229 230 218 210 210 210 211 212 214 219 221 220 220 222 224 225 225 227 228 228 229 234 242 245 241 238 239 238 236 234 232 231 230 232 237 241 243 244 243 242 242 243 244 244 244 244 245 248 248 247 246 248 247 245 242 238 236 234 229 222 217 213 206 200 194 186 178 180 184 184 184 185 182 180 180 179 181 182 179 175 175 176 176 173
210 219 219 209 204 205 206 206 208 211 216 218 218 218 220 222 224 224 225 226 226 230 236 242 246 243 241 240 242 242 238 237 238 238 238 240 242 243 244 243 242 242 242 243 243 243 244 245 247 247 246 246 249 250 248 246 243 238 234 227 222 220 215 206 197 192 188 184 183 184 182 183 183 179 179 184 187 187 187 184 179 175 173 172 174
208 211 207 200 196 195 196 199 201 205 211 213 215 220 223 224 225 226 227 229 230 233 237 242 247 250 249 249 251 250 244 243 247 246 242 241 242 244 244 243 242 243 242 241 241 241 242 245 246 246 246 247 251 251 249 247 246 244 241 234 226 222 215 206 199 194 191 189 187 185 183 185 187 186 187 192 193 189 185 182 177 173 170 169 175
205 206 204 201 196 188 189 196 197 202 208 211 215 221 225 225 225 227 230 233 234 235 238 242 246 248 250 251 254 252 245 244 249 249 243 241 243 244 242 241 240 240 240 240 239 241 243 245 246 246 245 247 250 250 248 247 246 244 242 239 235 230 223 213 205 200 196 195 193 190 189 192 194 195 194 193 193 190 188 185 178 173 172 171 175
205 207 207 207 205 200 198 203 208 213 217 219 220 220 221 222 221 224 228 231 235 238 239 242 245 248 250 252 255 254 249 246 247 249 247 246 247 247 247 245 243 241 240 239 239 241 243 245 246 245 244 246 247 247 245 245 246 244 240 239 238 237 234 229 220 210 203 201 199 196 198 200 198 197 196 194 193 192 189 187 183 180 179 180 181
210 215 218 219 220 216 208 208 218 225 228 230 227 220 219 221 222 224 227 230 234 237 238 242 248 251 253 254 254 255 254 252 250 250 252 252 250 250 251 251 250 247 244 241 240 242 244 245 245 245 245 245 245 245 243 240 241 242 238 237 238 237 237 237 234 228 219 211 205 204 207 205 202 202 202 198 193 189 187 189 188 186 186 189 189
218 222 225 223 220 217 214 213 215 218 223 228 228 225 225 229 231 232 233 233 234 234 235 242 248 249 248 250 253 256 257 256 253 253 256 256 252 249 250 250 251 251 248 245 243 243 244 245 245 245 245 244 243 242 242 239 236 235 233 232 234 235 235 233 232 233 231 223 217 217 216 211 209 210 207 201 195 192 191 191 192 192 193 194 193
219 221 219 217 214 212 212 212 207 203 208 217 226 233 238 242 244 244 244 244 244 243 242 245 247 246 244 246 250 254 255 254 252 253 256 256 252 250 250 250 249 249 248 248 249 248 248 247 245 245 246 247 245 242 240 238 234 231 230 230 231 232 232 232 231 230 230 229 228 228 226 222 220 217 209 204 203 203 201 199 196 194 192 190 187
217 220 220 221 223 222 219 218 215 209 209 211 214 220 227 234 239 242 245 247 251 252 250 247 248 248 249 251 255 256 255 253 252 253 254 255 255 253 252 252 255 258 258 256 253 252 251 248 246 245 246 247 247 244 241 240 234 228 226 229 231 230 230 234 237 236 235 234 234 235 233 230 226 219 212 210 208 203 199 196 192 186 181 178 178
214 219 224 225 225 226 226 227 227 224 219 214 211 209 207 210 214 218 225 231 236 242 246 249 253 258 261 264 267 269 267 264 264 263 262 261 262 260 257 256 262 276 283 278 267 260 255 251 248 246 243 241 242 244 245 242 234 226 225 228 231 232 233 235 237 237 238 239 239 240 238 232 226 222 221 217 209 199 192 188 186 183 179 176 176
216 218 223 223 221 221 224 225 227 229 227 226 228 227 222 222 220 218 223 231 236 244 255 265 272 275 277 278 280 281 278 276 275 273 270 267 267 270 272 270 266 266 267 268 269 269 265 260 256 251 246 245 246 249 249 245 237 229 229 231 230 230 234 237 235 233 235 237 238 239 236 230 230 231 227 217 207 200 196 193 189 184 181 181 177
217 217 220 222 219 217 214 213 218 226 231 238 248 255 261 268 257 244 245 253 262 272 280 284 284 284 285 286 287 287 286 284 283 280 278 274 272 274 277 272 264 260 259 259 262 265 265 262 259 256 254 254 254 252 251 247 239 234 233 229 223 226 234 238 237 234 233 233 234 236 234 231 233 235 228 216 208 204 203 202 196 188 186 185 177
212 213 217 218 215 212 205 205 213 211 203 199 157 127 123 117 144 258 287 285 289 290 285 286 288 287 288 287 285 285 285 285 285 282 280 278 277 279 277 266 253 252 254 255 257 260 260 258 257 257 259 260 258 255 252 248 243 239 235 226 223 231 238 239 239 239 237 235 235 235 233 232 233 232 228 219 210 205 206 206 202 196 192 186 179
189 191 196 197 195 194 187 186 195 179 161 156 145 160 187 192 210 238 257 268 276 277 274 276 277 278 283 285 284 283 283 283 284 283 281 281 280 279 277 272 267 264 263 262 262 264 265 265 264 264 264 264 263 261 257 253 248 244 238 234 236 240 240 240 240 240 238 237 237 234 231 231 230 229 227 218 209 206 207 208 206 202 197 190 184
172 171 173 173 174 179 181 192 221 226 226 239 242 237 234 239 247 251 263 282 291 290 289 288 285 285 288 287 286 287 285 283 284 283 280 278 279 277 275 274 275 274 272 271 270 271 272 273 273 271 267 264 263 262 260 258 256 250 243 241 243 241 238 240 241 237 233 233 234 231 229 227 224 222 220 215 209 208 207 206 204 201 199 197 191
170 167 168 171 179 198 231 271 274 266 263 266 266 253 245 257 273 285 314 331 329 321 317 312 305 302 304 303 298 293 284 280 282 286 287 283 279 279 278 277 277 276 274 275 276 278 279 278 278 276 272 267 265 263 260 259 259 256 250 245 241 237 235 238 238 232 227 227 227 226 225 222 217 214 214 211 208 205 204 203 202 199 199 200 193
168 168 171 179 192 223 247 259 288 291 277 256 252 248 247 260 271 280 325 346 348 350 354 351 339 327 323 320 314 295 272 271 283 293 300 298 290 287 287 286 285 282 277 275 275 276 277 275 273 273 272 271 270 268 265 261 259 259 259 253 244 237 234 233 231 226 221 218 217 217 218 216 212 208 205 202 199 198 197 197 198 196 193 189 183
165 168 174 186 203 231 255 268 281 289 285 272 265 261 262 269 269 259 263 330 347 352 4 14 22 31 19 356 341 300 266 273 293 301 307 311 310 308 308 306 303 295 285 278 275 274 273 272 272 272 272 271 271 270 269 267 264 262 262 260 251 239 231 228 224 220 215 212 211 210 207 204 200 196 193 190 187 185 184 182 182 181 175 170 170
163 167 175 204 230 239 259 280 287 295 300 292 278 270 271 273 263 237 225 328 346 344 344 1 43 64 66 54 41 18 290 278 292 300 304 309 310 309 310 311 311 308 301 295 290 286 283 281 279 278 277 275 273 272 269 268 268 266 262 261 255 241 230 224 218 215 214 211 207 201 194 189 184 180 177 174 171 170 170 168 163 159 157 155 154
176 188 204 238 250 250 273 298 305 313 315 285 254 256 267 253 219 195 229 333 342 350 350 344 43 58 58 54 41 27 359 281 274 284 288 291 295 300 306 308 308 307 306 303 299 293 290 289 288 285 284 282 278 277 273 268 268 267 262 261 259 247 234 223 215 215 215 208 197 187 178 172 168 165 163 161 158 158 160 157 148 144 147 148 146
227 256 263 278 282 280 294 311 319 322 303 194 186 177 157 163 177 179 338 341 354 9 9 5 20 18 17 10 359 354 345 304 277 276 281 288 294 297 300 304 305 303 300 297 294 289 285 288 293 289 287 285 279 278 277 272 269 266 263 261 255 240 227 216 209 207 201 181 167 160 158 156 153 151 150 148 147 148 151 152 147 146 149 150 148
266 294 304 304 300 300 312 323 323 303 229 191 175 161 148 143 153 98 13 8 10 10 4 359 355 329 322 329 328 326 327 319 300 289 289 291 292 291 294 300 304 302 297 288 282 282 279 285 304 321 334 20 53 65 94 224 237 246 248 234 200 189 188 184 176 165 153 142 129 118 120 128 132 137 140 141 142 147 151 151 149 149 152 154 158
330 341 346 340 332 334 353 358 357 350 200 190 178 169 161 149 141 94 9 5 4 0 354 348 341 322 310 316 319 319 322 322 319 315 310 302 295 296 303 312 311 302 300 297 283 296 22 74 64 62 70 76 76 78 92 111 129 146 153 147 144 144 145 146 143 138 136 135 131 128 132 134 137 142 145 143 143 146 149 151 152 154 158 162 165
319 330 341 345 346 354 17 33 54 101 157 185 190 193 192 191 201 254 311 327 336 343 344 339 332 326 323 330 331 324 322 324 324 324 324 332 349 345 354 35 69 96 101 69 22 143 121 109 98 87 84 85 85 91 105 114 117 122 124 123 126 127 128 133 136 137 139 142 143 145 147 147 146 147 145 142 142 145 150 155 159 163 168 170 168
202 215 223 218 212 220 217 199 192 193 196 199 201 203 211 224 239 260 287 301 307 316 325 324 319 313 315 336 335 324 319 321 322 324 340 59 91 97 104 109 111 115 127 162 153 142 136 125 113 104 99 100 107 118 123 122 122 124 125 124 126 129 131 135 140 142 143 144 145 146 146 145 145 147 147 148 149 152 156 161 164 167 171 172 169
199 207 216 209 201 206 210 206 206 209 209 210 210 211 215 225 235 246 257 268 278 284 293 298 289 266 263 295 309 311 308 306 304 313 111 122 129 128 122 122 127 137 163 175 152 140 140 139 133 128 127 127 130 134 135 133 133 135 137 137 137 139 141 143 144 143 143 144 146 147 148 149 151 153 155 157 157 159 162 165 168 170 171 169 168
201 203 214 217 219 227 232 234 238 235 226 222 226 229 232 238 242 242 237 231 232 247 261 268 263 255 266 286 294 297 289 273 235 158 141 140 139 137 136 138 142 149 164 167 155 150 154 159 160 161 162 158 152 149 147 146 147 148 149 150 150 150 150 150 148 146 146 148 149 151 153 156 159 159 159 161 162 164 167 169 170 171 171 170 169
206 207 214 216 218 222 225 229 238 242 234 230 237 244 246 249 251 249 245 239 234 236 242 247 251 255 266 280 284 278 253 224 186 160 153 150 148 148 151 153 154 158 169 176 170 167 172 180 183 184 186 183 175 167 161 158 158 159 158 157 157 156 155 155 155 153 154 155 157 159 162 163 165 165 165 165 166 167 169 172 175 176 175 173 172
212 214 218 219 217 217 217 218 221 225 229 235 244 244 241 245 251 256 256 255 251 244 238 232 236 247 256 265 270 256 223 195 177 167 161 159 158 160 164 170 178 189 201 209 204 194 202 212 207 201 201 198 193 186 179 171 168 168 167 165 164 162 161 162 163 163 163 164 166 167 169 169 170 171 170 170 171 172 173 175 177 178 177 176 176
219 220 221 219 217 217 220 218 213 215 226 239 247 245 242 246 252 254 249 244 245 245 238 229 233 244 249 258 265 245 212 189 177 173 170 169 172 177 180 184 196 216 229 229 222 214 218 223 219 213 210 207 204 200 193 186 180 177 175 173 171 168 168 170 173 174 174 174 174 174 175 176 177 178 177 176 177 178 178 178 178 178 178 179 181
228 232 230 225 220 221 226 223 214 215 227 239 247 250 250 249 245 233 222 223 231 238 236 231 238 246 251 260 266 244 211 192 184 183 184 184 186 190 192 197 208 230 244 239 234 231 229 224 221 218 213 210 209 206 200 195 190 186 184 181 179 176 175 177 181 182 182 181 180 181 182 183 184 186 185 183 182 182 184 185 183 180 180 183 187
228 234 234 229 225 225 227 224 217 220 230 239 247 252 251 246 236 225 221 221 225 228 228 230 238 248 253 255 252 232 210 202 198 197 197 197 198 201 205 214 229 249 269 261 244 239 236 231 223 216 210 209 210 208 202 200 198 196 193 190 188 186 185 185 186 188 188 188 187 188 189 190 191 193 194 192 189 188 188 189 190 190 190 191 194
223 222 222 224 224 225 226 225 226 230 237 244 251 253 251 248 245 240 234 228 225 225 227 230 237 247 251 247 239 230 221 218 214 209 207 207 209 212 218 227 241 257 273 281 264 248 243 239 230 219 211 207 205 203 202 202 202 203 204 201 199 197 195 193 192 192 194 195 195 195 197 198 197 198 199 200 199 197 195 194 195 198 199 200 201
221 221 217 217 220 219 220 226 234 241 246 251 256 260 259 258 258 253 244 237 231 231 234 240 246 252 254 248 241 240 241 238 231 224 219 218 219 222 227 235 246 260 272 285 286 266 248 241 236 226 216 210 205 200 200 202 204 206 208 208 206 204 202 200 198 199 202 203 203 202 203 204 204 204 204 205 205 206 206 205 204 205 206 207 207
219 217 208 204 205 207 212 225 239 246 251 255 257 257 257 260 263 263 258 252 245 240 243 249 254 256 255 251 244 242 247 251 247 239 233 230 229 232 237 242 251 264 277 290 297 285 259 244 238 231 221 215 210 204 201 201 202 204 206 208 209 208 207 205 203 206 211 213 211 209 209 209 210 211 211 210 211 212 213 214 213 214 214 213 213
204 199 187 186 193 204 216 230 241 253 265 271 269 263 259 258 260 264 266 267 260 251 249 253 257 257 255 251 243 240 244 251 252 249 245 241 239 241 246 251 260 274 286 295 302 297 270 246 237 234 228 222 219 214 210 207 204 203 205 209 210 211 212 211 210 212 216 217 216 214 213 214 215 215 215 215 215 215 216 217 218 218 219 218 218
159 165 169 171 178 192 212 231 249 262 268 272 275 272 266 261 261 265 270 272 268 261 257 259 261 260 256 249 240 238 244 250 253 252 250 247 245 246 250 256 266 281 290 296 304 304 277 247 238 237 233 227 225 224 220 217 214 212 213 215 215 216 218 219 219 220 220 218 218 217 216 216 217 217 217 217 217 217 218 219 219 219 219 220 219
112 129 150 158 165 180 194 211 252 266 261 260 267 274 271 266 267 273 277 278 276 273 270 269 266 262 258 251 245 244 248 251 255 256 255 253 251 251 252 257 267 280 288 289 297 304 282 249 239 239 236 230 227 226 223 221 222 223 224 223 222 223 226 229 231 230 228 225 224 222 220 218 219 219 220 219 219 219 221 222 222 221 220 220 220
64 70 73 71 75 190 241 321 321 314 298 283 280 289 291 286 295 302 296 288 282 277 273 269 265 261 258 254 251 252 254 255 256 260 262 261 261 261 260 261 268 279 286 287 291 300 293 260 244 240 238 233 229 228 227 225 225 227 229 230 231 233 237 240 239 237 234 232 229 227 225 224 223 223 225 225 224 224 225 226 225 225 224 224 224
60 57 50 36 26 21 14 359 343 346 351 345 338 350 2 15 22 24 21 11 342 307 283 268 260 258 257 254 253 255 258 259 261 265 268 270 271 271 269 268 271 278 286 286 284 289 294 280 256 244 239 237 235 232 230 229 228 229 230 233 235 238 240 241 241 241 240 238 235 231 229 228 227 227 229 229 228 228 229 230 230 229 229 229 229
63 63 59 51 46 44 38 31 25 19 16 12 2 354 353 358 4 9 16 27 31 24 10 336 279 264 262 262 262 264 267 267 268 271 273 274 276 276 274 273 273 276 284 291 291 290 293 291 275 255 244 241 241 240 237 234 232 233 235 236 238 240 241 239 240 241 242 240 238 235 234 233 232 230 230 230 231 231 231 231 232 232 233 233 232
65 65 62 57 56 55 53 53 52 47 40 36 31 27 27 28 26 23 25 32 37 36 33 31 25 358 315 296 290 287 286 284 283 284 285 286 287 286 285 282 278 277 281 291 299 300 298 295 286 270 255 247 245 244 243 239 236 236 238 240 241 241 241 240 240 241 241 241 239 238 235 235 235 234 232 232 233 233 232 232 233 233 234 233 231
66 64 59 56 55 56 57 58 55 49 47 47 46 44 44 45 43 42 41 39 37 36 39 42 42 41 38 31 14 348 330 318 312 308 306 302 298 297 295 292 287 284 285 290 298 304 301 294 288 279 267 256 249 247 245 243 241 240 241 242 243 242 241 240 241 241 240 240 240 239 237 235 235 235 234 234 234 235 233 232 232 233 232 231 229
63 61 58 56 56 57 59 59 55 51 51 54 54 52 50 49 46 46 46 43 42 43 47 52 52 52 53 53 48 38 28 18 3 349 339 326 313 309 310 306 297 287 281 280 287 301 308 305 295 284 273 262 254 248 245 244 243 243 244 245 245 243 240 240 240 240 240 240 240 239 238 236 235 235 234 233 233 234 234 233 232 231 231 231 229
Height
792 795 798 800 802 804 806 807 808 810 811 812 813 814 815 816 818 820 821 822 823 823 824 825 826 827 828 829 830 830 831 831 832 833 833 834 835 835 836 837 837 838 838 838 839 840 840 840 840 841 841 841 841 842 842 842 842 841 842 842 842 842 842 843 844 847 850 851 851 852 853 854 854 855 855 856 858 860 861 862 862 863 863 863 864
793 795 796 799 801 802 804 806 807 809 809 810 811 812 813 814 816 817 819 820 821 822 823 824 825 826 826 827 828 828 829 829 830 830 831 832 832 833 834 834 835 835 836 836 837 837 838 838 838 839 839 840 840 840 840 840 840 840 840 840 840 841 841 842 842 844 847 849 849 850 851 852 853 854 854 855 856 858 860 861 862 862 863 863 863
798 796 796 797 799 801 802 804 805 807 807 808 809 809 811 812 814 815 816 818 819 820 821 822 823 823 824 825 825 826 827 827 828 828 828 829 830 830 831 832 832 833 833 834 835 835 836 836 836 837 837 838 838 839 838 838 838 838 838 839 839 839 840 840 840 842 844 846 847 848 849 850 851 853 854 855 856 858 859 861 861 862 862 863 863
798 797 795 796 798 799 800 801 803 804 805 806 807 807 809 810 812 813 814 816 817 818 819 820 821 821 821 822 823 824 824 825 826 826 826 827 827 828 829 829 830 830 831 832 832 833 833 833 834 835 836 836 836 837 836 836 836 836 837 837 837 838 838 838 839 839 841 844 846 848 848 849 850 852 854 855 856 858 859 860 861 861 862 863 863
793 794 794 795 796 797 798 799 801 802 803 804 804 805 806 808 809 810 811 813 814 816 817 818 818 818 819 819 820 821 822 822 823 824 824 824 825 825 826 826 827 827 828 829 829 830 830 831 832 833 833 834 834 835 835 834 834 834 835 835 835 836 836 836 837 837 838 841 844 847 849 849 850 851 852 854 855 857 859 860 860 861 861 862 863
790 792 793 794 795 796 796 797 798 799 800 802 802 803 804 806 807 807 809 810 812 813 814 815 815 816 816 816 817 818 819 820 820 821 822 822 822 822 823 823 824 824 825 826 826 827 828 828 829 830 831 831 831 832 832 832 832 833 833 833 834 834 834 835 835 836 837 839 842 845 847 847 849 850 851 852 852 853 856 858 860 860 861 861 863
785 790 793 793 793 794 794 795 795 796 798 799 800 801 802 803 804 805 806 807 808 810 811 811 812 813 813 813 814 815 815 817 817 818 818 819 819 819 820 820 821 821 822 822 823 824 825 826 827 827 828 828 829 829 830 830 830 830 831 831 832 832 833 833 834 835 836 838 841 843 844 845 846 848 850 851 852 853 853 855 857 859 860 860 861
782 789 793 793 792 792 793 793 793 794 796 796 798 799 799 801 801 802 803 804 805 807 807 808 809 810 811 811 811 812 813 814 814 815 815 816 816 816 817 817 818 818 819 819 820 821 822 823 824 824 825 825 826 827 827 827 828 828 828 829 830 830 831 831 832 833 834 836 838 840 841 843 844 846 848 850 851 851 851 852 853 856 858 859 860
785 791 793 791 790 791 791 792 792 793 793 793 795 796 797 798 799 799 800 801 802 803 804 806 807 807 808 808 809 810 811 811 811 812 812 812 813 813 814 814 815 816 816 816 817 818 819 820 821 821 822 823 823 824 824 825 825 825 826 827 827 828 828 829 829 830 832 833 834 836 838 840 841 843 845 845 845 846 849 851 852 854 856 858 860
789 790 789 788 789 790 790 789 790 790 790 790 792 793 795 795 796 797 798 798 799 800 801 802 803 804 805 805 806 807 808 808 809 809 810 810 811 811 811 811 812 813 813 813 814 815 816 817 817 818 819 820 821 821 821 822 822 823 823 824 824 825 826 827 827 828 829 829 831 832 834 836 837 837 838 839 841 844 846 848 851 853 856 857 859
786 786 785 786 788 788 788 787 787 787 787 789 791 792 792 792 793 794 795 796 796 797 798 799 800 801 802 802 804 804 805 806 806 807 808 808 808 809 809 809 809 809 810 810 811 812 813 813 814 815 816 817 818 818 819 819 819 820 821 821 821 822 822 823 824 825 826 826 827 829 830 831 831 832 834 836 839 841 842 845 847 850 852 853 855
783 784 784 786 786 786 786 786 785 786 787 789 790 791 792 791 792 793 793 794 795 795 795 796 797 799 799 800 801 802 802 803 804 805 806 806 806 806 806 807 806 806 806 806 807 808 809 810 811 812 813 813 814 815 815 816 816 817 818 818 818 818 818 819 820 821 822 823 824 825 825 826 827 828 830 832 834 837 839 841 843 844 847 848 849
781 782 783 784 784 784 785 784 784 785 787 789 790 791 792 791 791 792 792 793 793 793 793 794 795 797 797 798 799 799 800 801 801 803 803 803 803 803 803 803 803 803 803 803 804 805 805 807 807 808 809 810 811 811 812 812 812 813 814 815 815 815 815 815 816 817 818 819 820 820 820 821 822 823 824 826 830 833 836 838 840 841 842 843 845
779 780 781 782 783 783 784 784 784 786 788 789 789 789 790 789 789 790 791 791 791 791 791 792 794 795 796 796 797 797 798 798 799 800 800 800 800 800 800 800 800 800 800 800 801 801 802 803 803 804 805 806 807 807 808 808 809 809 810 811 811 811 812 812 813 814 814 814 815 814 814 816 816 817 819 822 824 826 828 831 834 837 838 841 843
776 778 779 781 782 783 783 784 785 787 790 790 788 788 788 786 786 786 786 787 788 788 789 791 793 794 795 795 795 795 796 796 797 797 797 797 797 797 796 796 797 797 797 798 798 798 799 799 800 800 802 803 803 803 803 804 805 805 806 806 806 807 807 808 808 809 810 810 810 809 810 811 811 812 815 817 818 819 821 824 827 831 836 841 844
774 776 777 779 781 782 782 783 784 786 788 789 789 789 790 790 789 788 788 787 788 789 791 793 794 794 793 793 794 794 794 795 795 795 795 794 794 793 793 793 794 795 795 796 796 796 796 796 796 797 797 798 800 800 799 799 799 800 800 801 802 802 802 803 804 805 805 805 805 806 806 807 808 810 813 814 814 816 821 825 829 831 835 839 842
773 774 776 777 779 780 781 781 781 783 784 785 786 788 790 792 793 793 793 793 793 793 794 794 793 792 792 792 793 793 793 793 793 793 793 792 791 790 790 790 792 794 795 794 794 793 794 793 794 794 793 793 795 796 797 797 796 796 797 798 799 799 798 799 800 801 801 801 802 802 803 805 806 808 809 811 812 815 818 821 823 825 829 833 837
772 773 774 776 777 778 779 779 779 780 781 781 783 784 785 787 789 790 791 791 791 791 790 790 790 789 790 791 791 791 791 791 791 791 790 790 789 787 787 789 791 793 792 791 790 790 791 791 791 790 789 789 790 792 794 794 793 793 794 795 796 796 795 795 796 797 798 798 799 800 801 802 803 803 805 808 810 811 813 814 816 820 823 827 831
772 773 774 775 776 777 778 778 778 779 780 780 781 782 782 783 784 785 786 786 786 786 786 787 788 788 789 789 789 789 788 788 788 788 787 787 786 785 786 787 789 790 788 787 787 787 787 787 787 785 784 785 787 788 789 790 790 790 789 790 791 790 790 791 792 793 794 795 795 796 797 798 799 799 802 804 805 805 807 810 813 816 818 822 826
772 773 774 775 776 777 777 778 779 779 780 780 781 781 782 782 783 783 784 784 784 785 786 786 787 787 788 788 787 787 787 786 786 786 785 785 784 783 784 784 785 786 786 785 785 784 784 783 782 781 781 782 783 784 785 786 785 785 785 787 788 788 787 788 789 789 790 791 791 792 793 794 796 796 798 799 800 801 804 807 809 810 812 816 819
772 773 774 775 777 777 778 779 779 779 780 781 781 782 782 782 783 783 783 784 784 784 785 785 786 786 786 786 786 785 785 784 784 783 783 782 781 781 780 780 781 781 781 781 781 780 779 778 778 778 778 778 779 780 781 781 781 782 784 784 784 785 785 785 785 786 786 786 786 787 788 789 791 792 793 794 796 798 800 802 803 805 808 810 812
772 773 774 775 776 777 778 779 779 779 780 781 781 782 782 782 783 783 783 784 784 784 784 784 785 785 785 785 784 784 783 783 782 781 781 780 779 779 778 777 777 777 776 776 776 775 775 774 774 774 774 774 775 775 776 777 778 779 781 780 778 779 780 780 781 782 782 782 782 783 784 784 786 787 789 791 793 794 796 798 800 803 806 808 808
772 772 773 775 775 776 777 778 778 779 780 780 781 782 782 782 783 783 783 783 783 784 784 784 784 783 783 783 783 782 782 781 781 780 779 778 778 777 776 775 774 774 773 772 772 772 772 772 771 771 771 770 771 772 773 775 775 774 775 775 773 773 776 777 777 778 778 779 779 779 780 780 781 783 785 787 789 791 793 796 799 802 804 808 811
773 773 774 775 775 776 777 777 778 779 780 780 781 781 782 782 783 783 783 783 783 783 783 782 782 781 781 781 780 780 780 780 780 779 778 778 777 776 775 774 773 772 771 770 770 770 770 770 769 769 768 767 768 769 769 771 771 770 769 770 770 771 772 772 772 773 774 774 775 775 775 776 777 779 781 783 785 788 790 794 797 800 802 806 812
775 775 776 776 777 777 777 777 778 779 779 780 780 781 781 782 782 783 783 782 783 782 782 781 780 780 780 779 778 779 779 779 779 778 777 777 776 775 774 773 772 771 770 769 768 768 767 767 767 767 766 765 765 765 765 766 767 767 766 766 766 766 767 767 767 768 768 768 769 770 771 773 774 776 779 781 783 785 788 791 796 800 803 807 813
777 777 778 778 778 779 778 779 779 779 780 780 779 780 780 780 781 782 781 781 781 781 780 780 779 778 778 778 777 778 778 777 777 777 776 776 775 774 773 772 771 770 769 768 767 766 765 765 765 764 764 763 763 763 763 763 763 763 762 762 761 761 761 761 762 762 762 763 764 766 768 770 772 774 777 779 782 784 787 790 794 798 802 806 812
778 779 779 779 779 779 780 780 780 780 780 779 779 779 779 779 780 780 780 780 780 779 778 778 777 777 777 777 777 777 777 776 776 775 775 774 774 773 773 771 771 770 769 768 766 765 764 764 763 763 763 762 762 761 761 760 760 759 758 757 756 756 757 758 759 759 759 761 762 762 763 766 770 773 775 778 780 783 786 789 793 797 802 806 811
781 781 781 781 781 780 780 780 780 780 780 779 779 779 779 779 779 779 779 779 778 778 777 776 775 775 776 776 776 776 776 775 774 774 773 773 772 772 771 770 769 769 768 767 766 765 764 764 763 763 763 762 762 761 760 759 758 757 756 755 754 755 755 756 758 759 760 763 765 766 766 766 768 771 775 777 780 784 787 789 793 798 803 807 811
784 784 784 784 783 782 782 781 780 779 779 779 779 779 779 779 779 779 779 778 777 776 776 775 774 774 774 774 774 774 774 773 772 772 771 770 770 770 769 769 768 767 767 766 766 765 765 764 764 764 763 763 763 761 760 759 758 758 757 756 755 755 755 756 758 759 760 763 768 772 774 775 774 775 776 779 782 785 787 789 793 798 803 807 810
789 790 790 789 787 785 783 783 781 780 779 779 779 779 779 778 778 778 777 777 776 775 774 773 773 772 772 772 772 772 771 771 770 770 769 768 768 768 767 767 767 767 767 767 766 766 766 765 765 764 764 764 763 763 762 761 760 759 758 758 757 757 757 758 759 761 763 766 769 772 775 777 778 778 779 781 783 786 789 791 794 798 802 806 810
791 792 792 791 790 786 784 782 780 779 778 778 778 778 777 777 777 776 776 776 775 774 774 773 772 771 771 771 771 770 770 769 768 768 767 767 767 767 767 767 767 767 767 767 767 767 766 765 765 765 765 765 764 764 764 762 761 761 760 760 760 760 760 761 762 763 765 767 769 771 773 775 777 778 780 782 785 788 791 793 796 800 803 807 810
780 781 781 782 782 781 779 777 776 775 775 774 774 775 775 775 775 774 774 774 774 773 773 772 772 771 771 770 770 770 769 768 768 767 767 766 767 767 767 767 767 767 767 767 767 767 766 766 766 765 765 765 765 765 765 764 764 763 762 762 762 762 763 763 764 764 766 767 770 773 774 777 779 781 783 784 787 789 792 794 797 801 804 808 810
774 776 777 777 777 776 775 773 772 772 772 771 771 771 772 772 772 772 772 772 772 772 772 771 771 771 770 770 770 769 769 768 767 767 766 767 767 767 767 767 767 767 767 767 767 767 767 767 767 766 766 766 766 766 766 766 765 765 764 764 764 764 765 766 766 767 768 770 772 774 776 778 781 783 785 786 788 790 792 795 798 801 804 807 810
773 774 775 775 775 775 774 773 773 773 773 772 772 771 771 771 771 771 771 771 771 771 771 770 770 770 769 769 769 769 768 767 767 767 767 767 767 767 767 768 767 767 767 767 767 767 767 767 767 767 767 767 767 767 767 767 766 766 766 766 766 766 767 768 769 770 771 773 775 776 778 780 782 784 786 787 789 791 793 796 798 801 804 806 809
773 773 772 771 770 770 770 771 772 773 773 772 771 771 771 771 771 771 771 770 771 770 770 769 769 769 769 768 768 767 767 767 766 766 766 767 767 767 767 768 768 768 767 767 767 766 766 766 766 767 767 767 767 768 768 768 768 768 768 768 768 769 770 771 772 773 774 775 776 778 780 782 783 785 786 788 790 792 794 796 799 801 804 806 808
772 772 771 769 766 765 765 767 769 770 770 770 769 769 769 769 769 769 769 770 770 770 769 769 769 769 768 768 767 767 766 766 766 766 766 766 767 767 767 767 767 767 768 767 767 766 766 766 766 766 766 767 767 768 768 768 769 769 769 770 770 771 772 773 774 775 775 777 778 779 781 782 784 785 787 789 790 792 794 797 799 802 803 805 808
771 771 770 769 767 765 764 765 767 767 768 768 768 767 767 766 766 767 767 768 768 768 768 769 769 769 768 767 767 767 766 766 766 766 766 766 766 766 767 767 767 767 767 767 767 767 766 765 765 765 765 766 767 767 768 769 769 770 770 771 771 772 773 774 775 776 777 778 779 780 782 783 785 786 787 789 791 793 795 797 800 801 803 805 807
770 770 770 770 768 766 766 766 766 767 767 768 768 768 767 767 766 765 765 766 766 766 767 767 768 768 768 768 768 767 767 767 766 766 766 766 766 766 766 766 767 767 767 767 767 767 766 765 765 765 765 765 765 766 767 768 769 770 771 772 772 773 774 775 776 777 778 779 780 781 783 784 785 787 788 790 791 793 796 798 799 801 803 805 807
770 769 769 769 768 767 767 767 767 768 768 768 769 769 769 768 767 765 765 765 764 764 764 765 766 766 767 768 768 767 767 767 766 766 765 765 765 766 766 766 766 766 766 767 767 766 766 765 765 764 764 764 765 765 766 767 768 769 770 771 773 774 774 775 776 777 778 779 781 782 783 784 786 787 789 790 792 793 795 797 798 800 802 804 806
770 769 768 768 768 768 768 768 769 769 769 769 770 769 769 768 767 766 765 765 764 764 764 763 764 764 766 767 767 767 767 766 766 766 765 765 765 765 766 766 765 766 766 766 766 766 766 765 765 764 764 763 764 764 765 766 768 769 770 771 772 774 774 775 776 777 778 780 781 782 783 785 786 788 789 790 792 793 795 796 798 800 801 803 805
770 769 768 767 767 768 768 769 770 769 769 770 769 768 768 767 766 766 765 765 765 765 764 763 763 763 764 765 765 765 766 765 765 765 765 765 765 765 765 765 765 765 766 766 766 766 766 765 765 764 764 763 763 764 765 766 767 768 770 771 772 773 774 776 777 778 778 780 781 782 783 784 786 787 788 790 792 793 795 796 797 799 801 803 805
770 769 768 767 767 768 769 770 770 769 769 769 768 767 766 766 765 765 765 764 764 764 764 763 763 762 762 763 763 764 764 764 764 764 764 764 764 764 764 765 765 765 765 766 766 766 766 765 765 764 763 763 763 763 764 765 766 767 768 770 771 772 774 775 776 777 778 779 780 781 782 784 785 786 787 789 791 792 794 795 797 798 800 802 803
771 770 769 768 768 768 769 769 769 769 768 767 766 765 765 764 764 764 763 763 763 763 762 762 762 762 762 762 762 762 762 761 762 762 762 762 763 763 764 764 765 765 765 765 765 764 764 764 764 764 763 763 763 762 763 764 764 766 767 768 769 771 772 773 774 775 776 777 779 780 781 782 783 785 786 788 789 791 792 794 795 797 799 800 802
771 770 770 769 769 769 769 769 769 768 767 766 766 765 764 764 763 763 762 762 762 761 761 761 761 761 761 760 760 760 759 759 759 759 759 760 761 761 762 763 764 765 765 764 764 763 763 762 763 763 763 763 763 762 762 763 763 764 765 767 768 769 770 771 772 773 774 776 777 778 780 781 782 783 785 786 788 789 790 792 793 795 797 798 800
771 771 771 770 769 769 769 769 769 768 767 766 766 765 764 764 763 762 762 761 761 760 760 760 759 759 759 759 759 758 758 758 758 758 758 758 759 759 761 762 763 764 764 764 764 763 762 762 762 762 762 762 762 762 762 762 762 763 764 764 765 766 767 768 769 771 772 774 775 776 778 779 780 782 783 784 786 787 788 790 792 793 794 796 797
771 771 771 770 770 770 770 770 769 768 767 767 766 765 764 763 762 762 761 760 759 759 759 758 758 758 757 758 758 757 757 757 758 757 757 757 757 758 759 761 762 762 763 762 762 762 761 761 761 761 761 761 761 761 761 761 761 762 762 762 763 764 765 766 768 769 770 772 773 774 776 777 779 780 782 783 784 785 787 788 789 791 792 794 795
772 771 771 770 770 770 770 770 769 768 767 767 766 765 764 763 762 762 761 759 759 758 757 757 757 757 756 756 756 756 756 757 757 757 757 757 757 757 758 759 760 761 761 760 760 760 760 759 759 759 759 759 759 759 759 759 759 760 760 761 761 762 763 765 766 767 768 770 771 772 774 775 776 778 780 781 782 784 785 786 787 788 790 791 792
772 772 771 771 770 770 770 770 769 768 768 767 766 765 764 764 763 762 761 760 759 758 757 757 757 756 755 755 756 756 756 756 756 756 757 756 756 757 757 758 758 759 758 758 758 758 758 758 757 757 757 757 757 757 757 758 758 758 758 759 759 760 761 763 764 765 766 767 769 770 772 773 774 776 777 779 780 781 782 783 784 786 787 788 789
773 773 772 772 771 771 771 770 770 769 768 767 767 766 765 764 764 763 762 761 760 759 759 758 757 757 756 756 756 756 756 756 756 756 756 756 756 756 756 756 756 757 756 756 756 756 755 755 755 754 754 754 754 754 755 755 756 756 756 757 757 758 759 760 761 762 764 765 766 768 769 770 772 773 774 776 777 778 779 780 782 783 784 785 786
775 774 773 773 772 772 772 771 771 770 769 768 768 767 766 765 765 764 763 762 761 760 759 759 758 758 757 757 756 756 756 756 756 756 756 755 755 755 755 755 755 754 754 754 754 754 753 752 752 752 752 751 751 752 752 752 753 754 754 754 755 755 756 757 758 759 761 762 763 765 766 768 769 770 771 773 774 775 776 777 778 780 781 782 783
776 775 775 774 773 773 772 772 771 771 770 769 768 768 767 767 766 765 764 763 761 761 760 759 759 758 758 757 756 756 756 756 756 756 755 755 755 754 754 754 754 753 753 753 752 752 752 751 750 750 750 749 749 749 749 750 750 751 751 751 752 753 753 754 755 757 758 759 760 761 763 764 765 767 768 769 771 772 773 774 775 776 777 778 779